Location: Burera
(21.3780°N, 81.9534°E)
Time: 01:04:40
(UTC+00:00)

SJ-11-01 - Pass Details

Date: 13 August 2020
Orbit: 683 x 701 km, 98.0° (Epoch: 22 September)

Event Time Altitude Azimuth Distance (km) Brightness Sun altitude
Rises 13:34:17 0° 157° (SSE) 3,058 7.2 -7.6°
Reaches altitude 10° 13:36:34 10° 152° (SSE) 2,146 6.4 -8.1°
Maximum altitude 13:41:08 52° 76° (ENE) 863 4.5 -9.1°
Drops below altitude 10° 13:45:43 10° 0° (N) 2,161 7.1 -10.1°
Sets 13:48:01 0° 356° (N) 3,082 8.0 -10.6°
